Weather Roundup
Issued by NWS Corpus Christi, TX

Home | Current Version | Previous Version | Text Only | Print | Product List | Glossary On
Versions: 1 2 3 4 5 6 7 8 9 10 11 12 13 14 15 16 17 18 19 20 21 22 23 24 25 26 27 28 29 30 31 32 33 34 35 36 37 38 39 40 41 42 43 44 45 46 47 48 49 50
000
ASUS44 KCRP 220910
HRRCRP

SOUTH TEXAS REGIONAL WEATHER ROUNDUP
NATIONAL WEATHER SERVICE CORPUS CHRISTI TX
300 AM CST WED NOV 22 2017


TXZ229>244-221000-
...CORPUS CHRISTI AREA OBSERVATIONS...

CITY           SKY/WX    TMP DP  RH WIND       PRES   REMARKS
CORPUS CHRISTI MOCLDY    64  59  83 N18       30.07R
NAS CORPUS CHR MOCLDY    67  64  90 N23G32    30.06R
ROCKPORT       CLOUDY    64  62  93 N16G22    30.07R
KINGSVILLE ARP FAIR      64  57  79 N10       30.09R
KINGSVILLE NAS CLOUDY    64  59  83 N13       30.07R
ALICE          CLEAR     62  53  72 N14       30.09R
$$

...VICTORIA AREA OBSERVATIONS...

CITY           SKY/WX    TMP DP  RH WIND       PRES   REMARKS
PORT LAVACA    CLOUDY    63  59  87 N12       30.09R
VICTORIA       CLEAR     61  56  83 N12G20    30.10R
BEEVILLE       FAIR      62  56  81 N13       30.10R
PLEASANTON     NOT AVBL
SAN ANTONIO    PTCLDY    57  41  55 N16G25    30.18R
$$

...LAREDO AREA OBSERVATIONS...

CITY           SKY/WX    TMP DP  RH WIND       PRES   REMARKS
LAREDO         PTCLDY    59  43  55 NW14      30.17R
COTULLA        CLEAR     56  43  61 N9        30.18R
DEL RIO        CLEAR     53  32  44 NW6       30.30R
MCALLEN        CLEAR     66  59  78 N15       30.05R
HEBBRONVILLE   CLEAR     58  46  64 N12       30.13R
$$

...OTHER TEXAS OBSERVATIONS...

CITY           SKY/WX    TMP DP  RH WIND       PRES   REMARKS
BROWNSVILLE    CLEAR     68  67  96 NW7       29.99R
HOUSTON        MOCLDY    60  56  86 N16       30.11R
COL. STATION   CLOUDY    59  55  87 N16       30.16R
AUSTIN         CLEAR     56  40  55 N20       30.18R
WACO           CLEAR     51  36  56 N8        30.24R
FORT WORTH     CLEAR     50  28  42 N18       30.28R
WICHITA FALLS  CLOUDY    36  17  46 N12       30.38R WCI  28
LUBBOCK        CLEAR     33  24  69 N8        30.40S
EL PASO        PTCLDY    52  27  38 NE10      30.35S
$$

...MARINE OBSERVATIONS...

STATION/POSITION TIME  SKY/WX   TEMP    WIND        PRES    VSBY  WAVE   SWELL
                                AIR SEA DIR/SP/G                  HT/PER HT/PER
                 (UTC)          (F)     (DEG/KT/KT) (MB)    (MI)  (FT/S) (FT/S)
PORT ARANSAS     NOT AVBL
BUOY 90 E PORT A 0750            72 78   10/ 23/ 27 1014.5          4/ 4
BUOY 200 E PT IS 0750            75 80   30/  8/ 10 1012.5          2/ 4   2/ 4
BUOY 15 E GALVES 0750            62 70   20/ 19/ 23 1016.7          5/ 5
$$




USA.gov is the U.S. government's official web portal to all federal, state and local government web resources and services.